Flag for China Weather past 2 weeks in Taiyuan, Shanxi, China

Now
90 °F

Passing clouds.


Feels Like: 86 °F
Forecast: 58 / 88 °F
Wind: 6 mph from Southeast

Location: Taiyuan Airport

Current Time: May 25, 2015 at 2:19:19 PM

Latest Report: May 25, 2015 at 2:00 PM


Visibility: N/A

Pressure: 29.77 "Hg

Humidity: 12%

Dew point: 30 °F

Location of TaiyuanLocation

Historic Weather in Taiyuan — Graph

°F

Taiyuan temperature yesterday

Maximum temperature yesterday: 88 °F (at 2:30 PM)
Minimum temperature yesterday: 57 °F (at 5:00 AM)
Average temperature yesterday: 74 °F

Past Weeks' High & Low Weather Summary

 TemperatureHumidityPressure
High90 °F (May 17, 3:30 PM)94% (May 10, 3:00 PM)30.15 "Hg (May 10, 3:00 PM)
Low41 °F (May 12, 3:00 AM)7% (May 19, 6:00 PM)29.47 "Hg (May 17, 3:30 PM)
Average67 °F35%29.84 "Hg
* Reported May 10 1:00 PM — May 25 1:00 PM, Taiyuan, Weather by CustomWeather, © 2015

Note: Actual official high and low records may vary slightly from our data, if they occured in-between our weather recording intervals... More about our weather records

Advertising

Taiyuan weather history for previous 24 hours

 ConditionsComfort  
Time TempWeatherWind HumidityBarometerVisibility
1:00 PM
Mon, May 25
88 °FPassing clouds.3 mph18%29.80 "HgN/A
12:30 PM88 °FPassing clouds.3 mph21%29.80 "HgN/A
11:30 AM84 °FSunny.3 mph23%29.83 "Hg10 mi
11:00 AM81 °FSunny.3 mph26%29.86 "Hg10 mi
10:30 AM81 °FClear.3 mph30%29.86 "Hg5 mi
10:00 AM77 °FClear.1 mph32%29.86 "Hg4 mi
9:30 AM75 °FClear.1 mph36%29.86 "Hg4 mi
9:00 AM73 °FClear.1 mph38%29.89 "Hg4 mi
8:30 AM72 °FClear.1 mph41%29.86 "Hg4 mi
8:00 AM72 °FClear.1 mph41%29.86 "Hg4 mi
7:30 AM70 °FClear.1 mph46%29.86 "Hg4 mi
7:00 AM66 °FClear.No wind56%29.86 "Hg4 mi
6:30 AM63 °FClear.1 mph64%29.86 "Hg4 mi
6:00 AM59 °FClear.1 mph68%29.86 "Hg4 mi
5:30 AM59 °FClear.1 mph63%29.83 "Hg5 mi
5:00 AM59 °FClear.1 mph63%29.83 "Hg10 mi
4:30 AM61 °FClear.1 mph59%29.83 "Hg10 mi
4:00 AM63 °FClear.3 mph56%29.80 "Hg10 mi
3:30 AM63 °FClear.1 mph52%29.80 "Hg10 mi
3:00 AM63 °FClear.1 mph56%29.80 "Hg10 mi
2:30 AM64 °FClear.1 mph49%29.80 "Hg10 mi
2:00 AM64 °FClear.1 mph49%29.80 "Hg10 mi
1:30 AM64 °FClear.1 mph49%29.80 "Hg10 mi
1:00 AM66 °FClear.3 mph46%29.80 "Hg10 mi
12:30 AM68 °FClear.3 mph43%29.80 "Hg10 mi
12:00 AM68 °FClear.3 mph43%29.80 "Hg10 mi
11:30 PM
Sun, May 24
72 °FClear.6 mph36%29.80 "Hg10 mi
11:00 PM70 °FClear.6 mph38%29.80 "Hg10 mi
10:30 PM70 °FClear.6 mph38%29.80 "Hg10 mi
10:00 PM72 °FClear.6 mph36%29.80 "Hg10 mi
9:30 PM75 °FClear.8 mph31%29.80 "Hg10 mi
9:00 PM75 °FClear.8 mph31%29.80 "Hg10 mi
8:30 PM77 °FClear.10 mph30%29.80 "Hg10 mi
8:00 PM77 °FPassing clouds.10 mph32%29.77 "HgN/A
7:30 PM79 °FPassing clouds.13 mph30%29.77 "HgN/A
7:00 PM81 °FPassing clouds.13 mph28%29.74 "HgN/A
6:30 PM82 °FPassing clouds.13 mph25%29.74 "HgN/A
6:00 PM86 °FSunny.3 mph11%29.74 "Hg10 mi
5:30 PM86 °FPassing clouds.3 mph11%29.71 "HgN/A
5:00 PM88 °FPassing clouds.6 mph10%29.74 "HgN/A
4:30 PM88 °FPassing clouds.3 mph10%29.74 "HgN/A
4:00 PM88 °FSunny.6 mph10%29.74 "Hg10 mi
3:30 PM88 °FPassing clouds.8 mph10%29.74 "HgN/A
3:00 PM88 °FPassing clouds.6 mph10%29.74 "HgN/A
2:30 PM88 °FSunny.3 mph13%29.74 "Hg10 mi
2:00 PM86 °FSunny.3 mph12%29.77 "Hg10 mi
Weather by CustomWeather, © 2015

See weather overviewHow to use our weather pages